World > North America > United States > Ohio

Suffield, Ohio Regional Weather

Lat: 41.02N, Lon: 81.35W
Wx Zone: OHZ022Web Search
Suffield Weather Warning NWS WEATHER ALERT FOR THE SUFFIELD, OH AREA - Issued: 801 AM EDT Wed May 12 2021 Suffield Weather Warning  

Our weather pages are very print friendly and they make great conversation starters.

Feedback


°F Click to change Suffield hourly weather to Imperial units.Click to change Suffield hourly weather to Metric units. °C
Suffield Weather Map
UTC Time: 5/12/2021, 13:29
Your Time:

Suffield, OH Regional Weather

Expires:202105121400;;999375
ASUS41 KCLE 121312
RWRCLE
OHIO REGIONAL WEATHER ROUNDUP
NATIONAL WEATHER SERVICE WILMINGTON, OH
900 AM EDT WED MAY 12 2021

NOTE: "FAIR" INDICATES FEW OR NO CLOUDS BELOW 12,000 FEET WITH NO
SIGNIFICANT WEATHER AND/OR OBSTRUCTIONS TO VISIBILITY.


OHZ009>014-019>023-028>033-038-089-121400-
   NORTHEAST OHIO
  
CITY           SKY/WX    TMP DP  RH WIND       PRES   REMARKS
CLE-HOPKINS    FAIR      50  36  58 N8        30.38R                  
CLE-LAKEFRONT  FAIR      50  37  61 N7        30.39R                  
CUY CO. ARPT   MOSUNNY   48  37  66 NW3       30.39R                  
LORAIN-ELYRIA  FAIR      49  37  63 NE10      30.41R                  
ASHTABULA      FAIR      49  38  65 NW9       30.37R                  
AKRON-CANTON   FAIR      50  39  66 N12       30.37R                  
WOOSTER        FAIR      48  38  68 N10       30.39R                  
MANSFIELD      FAIR      49  37  63 N8        30.39R                  
YOUNGSTOWN     FAIR      48  38  68 NW8       30.36R                  
$$
 

SKY/WX - Weather  TMP - Temperature  DP - Dew Point  RH - Relative Humidity
WIND - Wind Direction/Speed PRES - Barometric Pressure VSB - Visibility
WCI - Wind Chill Index E13G22 Wind - East Wind 13 mph/Gusts of 22 mph